Regional Weather Roundup
Issued by NWS

Current Version | Previous Version | Text Only | Print | Product List | Glossary On
Versions: 1 2 3 4 5 6 7 8 9 10 11 12 13 14 15 16 17 18 19 20 21 22 23 24 25 26 27 28 29 30 31 32 33 34 35 36 37 38 39 40 41 42 43 44 45 46 47 48 49 50
000
ASUS46 KSTO 221515
RWRCA

NORTHERN AND CENTRAL CA REGIONAL WEATHER ROUNDUP
NATIONAL WEATHER SERVICE SACRAMENTO CA
800 AM PDT THU AUG 22 2019

NOTE: FAIR INDICATES FEW OR NO CLOUDS BELOW 12,000 FEET WITH NO
SIGNIFICANT WEATHER AND/OR OBSTRUCTIONS TO VISIBILITY.

CAZ001-003-221600-
NORTHWEST AREA

CITY           SKY/WX    TMP DP  RH WIND       PRES   REMARKS
CRESCENT CITY  MOSUNNY   58  58 100 VRB5      29.95S
UKIAH          SUNNY     68  62  81 NW3       29.85S
$$

CAZ006-505>513-221600-
BAY AREA

CITY           SKY/WX    TMP DP  RH WIND       PRES   REMARKS
SANTA ROSA     MOSUNNY   66  64  93 CALM      29.81S
SAN RAFAEL     N/A       MM  MM  MM MISG
NAPA           CLOUDY    66  65  96 SW6       29.81R
CONCORD        MOSUNNY   71  62  73 S8        29.81R
OAKLAND CITY   N/A       64  MM  MM MISG
OAKLAND        DRIZZLE   66  63  90 CALM      29.84R FOG
SAN FRAN CITY  N/A       61  MM 100 MISG
SAN FRAN ARPT  PTSUNNY   64  60  87 NW9       29.82S
LIVERMORE      CLOUDY    68  65  90 SW5       29.82R
HAYWARD        CLOUDY    65  62  90 W5        29.83R
REDWOOD CITY   N/A       68  MM  89 MISG
MOFFETT ARPT   CLOUDY    68  64  87 N7        29.84R
SAN JOSE ARPT  CLOUDY    70  70 100 N5        29.82S
$$
CAZ034-037-514>518-221600-
CENTRAL COAST

CITY           SKY/WX    TMP DP  RH WIND       PRES   REMARKS
WATSONVILLE    FOG       63  62  97 CALM      29.84S VSB 1/2
SALINAS        CLOUDY    63  61  93 NW7       29.84R FOG
MONTEREY       CLOUDY    66  60  81 VRB7      29.85S
SAN LUIS OBISP SUNNY     71  60  68 W10       29.78S
SANTA MARIA    SUNNY     62  57  83 CALM      29.81R
$$
CAZ015-016-221600-
NORTHERN SACRAMENTO VALLEY

CITY           SKY/WX    TMP DP  RH WIND       PRES   REMARKS
REDDING        MOSUNNY   79  56  45 N10       29.82S
RED BLUFF      SUNNY     79  56  45 NW10      29.82R
OROVILLE       SUNNY     75  60  59 SE3       29.80S
$$
CAZ016>018-221600-
SOUTHERN SACRAMENTO VALLEY

CITY           SKY/WX    TMP DP  RH WIND       PRES   REMARKS
AUBURN         SUNNY     73  52  46 CALM      29.85R
BEALE AFB      SUNNY     75  57  53 CALM      29.78R
LINCOLN        FAIR      70  55  60 CALM      29.79R
MARYSVILLE     SUNNY     74  63  68 S3        29.79R
PLACERVILLE    FAIR      72  37  28 NE6       29.90S
SAC INTL ARPT  PTSUNNY   70  64  81 N3        29.78R
MATHER AIRPORT SUNNY     70  61  73 SE5       29.78R
DOWNTOWN SAC   N/A       74  MM  MM MISG
SAC EXEC ARPT  MOSUNNY   72  65  78 CALM      29.78S
VACAVILLE      MOSUNNY   73  65  75 N3        29.80R
TRAVIS AFB     MOSUNNY   70  65  84 SW6       29.79R
$$
CAZ019>021-221600-
SAN JOAQUIN VALLEY

CITY           SKY/WX    TMP DP  RH WIND       PRES   REMARKS
STOCKTON       MOSUNNY   74  64  71 W5        29.78R
MODESTO        SUNNY     72  64  76 N8        29.78R
MERCED         SUNNY     68  61  78 NW5       29.78R
LEMOORE        CLOUDY    73  58  59 NW6       29.79R
FRESNO         PTSUNNY   72  58  61 NW7       29.79R
HANFORD        SUNNY     73  59  61 VRB3      29.78S
PORTERVILLE      N/A    N/A N/A N/A MISG        N/A
BAKERSFIELD    SUNNY     76  52  43 SE5       29.79R
$$
CAZ011-012-071-221600-
NORTHERN MOUNTAINS

CITY           SKY/WX    TMP DP  RH WIND       PRES   REMARKS
YREKA          SUNNY     61  54  77 N10       30.05R
MOUNT SHASTA   MOSUNNY   59  52  77 VRB5      30.04R
ALTURAS        SUNNY     59  52  77 VRB3      30.07R
$$
CAZ011-012-071-221600-
SIERRA NEVADA MTNS

CITY           SKY/WX    TMP DP  RH WIND       PRES   REMARKS
BLUE CANYON    SUNNY     66  50  56 NE3       30.06R
TRUCKEE        SUNNY     50  36  57 CALM      30.11S
TAHOE VLY ARPT MOSUNNY   50  35  56 S3        30.10S
MAMMOTH LAKES  FAIR      57  32  38 CALM      30.15R
$$



USA.gov is the U.S. government's official web portal to all federal, state and local government web resources and services.